^^
Your Local Weather - Clay, NY Station Historical Data
Daily Summary for March 8, 2018 Units:  English    Metric   Both
« Previous Day
Next Day »
Daily Weekly Monthly Yearly Custom
  High: Low: Average:
Temperature: 35.0 °F 26.7 °F 30.8 °F
Dew Point: 29.4 °F 17.5 °F 22.9 °F
Humidity: 91% 52% 73%
Wind Speed: 5.0mph 0.0mph 2.1mph
Wind Gust: 10.0mph - -
Wind- - West
Pressure: 29.75 in 29.63 in -
Precipitation: 0.00 in    
Historical Graphs
 
 
Tabular Data for March 8, 2018
Time Temperature Dew Point Pressure Wind Wind Speed Wind Gust Humidity Rainfall Rate (Hourly) solar
00:00 31.6 °F 28.5 °F 29.74 in East 1.0 mph 1.0 mph 88% 0.00 in 0 W/m2
00:06 31.6 °F 28.7 °F 29.75 in East 1.0 mph 1.0 mph 89% 0.00 in 0 W/m2
00:12 31.6 °F 28.7 °F 29.74 in Calm     89% 0.00 in 0 W/m2
00:18 31.6 °F 28.7 °F 29.74 in Calm     89% 0.00 in 0 W/m2
00:24 31.6 °F 28.7 °F 29.74 in Calm     89% 0.00 in 0 W/m2
00:30 31.5 °F 28.6 °F 29.74 in Calm     89% 0.00 in 0 W/m2
00:36 31.5 °F 28.6 °F 29.74 in Calm     89% 0.00 in 0 W/m2
00:42 31.4 °F 28.5 °F 29.74 in Calm     89% 0.00 in 0 W/m2
00:48 31.5 °F 28.6 °F 29.74 in Calm     89% 0.00 in 0 W/m2
00:54 31.5 °F 28.6 °F 29.74 in Calm     89% 0.00 in 0 W/m2
01:00 31.5 °F 28.6 °F 29.74 in Calm     89% 0.00 in 0 W/m2
01:06 31.5 °F 28.6 °F 29.74 in Calm     89% 0.00 in 0 W/m2
01:12 31.5 °F 28.6 °F 29.74 in Calm     89% 0.00 in 0 W/m2
01:18 31.5 °F 28.9 °F 29.74 in Calm     90% 0.00 in 0 W/m2
01:24 31.5 °F 28.9 °F 29.74 in Calm     90% 0.00 in 0 W/m2
01:30 31.5 °F 28.9 °F 29.74 in Calm     90% 0.00 in 0 W/m2
01:36 31.4 °F 28.8 °F 29.74 in Calm     90% 0.00 in 0 W/m2
01:42 31.4 °F 28.8 °F 29.73 in Calm     90% 0.00 in 0 W/m2
01:48 31.4 °F 28.8 °F 29.73 in Calm     90% 0.00 in 0 W/m2
01:54 31.3 °F 28.7 °F 29.73 in Calm     90% 0.00 in 0 W/m2
02:00 31.3 °F 28.7 °F 29.73 in Calm     90% 0.00 in 0 W/m2
02:06 31.3 °F 28.7 °F 29.73 in Calm     90% 0.00 in 0 W/m2
02:12 31.3 °F 28.7 °F 29.73 in Calm     90% 0.00 in 0 W/m2
02:18 31.3 °F 28.7 °F 29.73 in Calm     90% 0.00 in 0 W/m2
02:24 31.2 °F 28.6 °F 29.73 in Calm     90% 0.00 in 0 W/m2
02:30 31.2 °F 28.9 °F 29.73 in Calm     91% 0.00 in 0 W/m2
02:36 31.3 °F 29.0 °F 29.72 in Calm     91% 0.00 in 0 W/m2
02:42 31.3 °F 29.0 °F 29.72 in Calm     91% 0.00 in 0 W/m2
02:48 31.3 °F 29.0 °F 29.72 in Calm     91% 0.00 in 0 W/m2
02:54 31.3 °F 29.0 °F 29.72 in Calm     91% 0.00 in 0 W/m2
03:00 31.3 °F 29.0 °F 29.71 in Calm     91% 0.00 in 0 W/m2
03:06 31.3 °F 29.0 °F 29.71 in Calm     91% 0.00 in 0 W/m2
03:12 31.4 °F 29.1 °F 29.71 in Calm     91% 0.00 in 0 W/m2
03:18 31.4 °F 29.1 °F 29.71 in Calm     91% 0.00 in 0 W/m2
03:24 31.4 °F 29.1 °F 29.71 in Calm   1.0 mph 91% 0.00 in 0 W/m2
03:30 31.5 °F 29.2 °F 29.71 in NW 1.0 mph 3.0 mph 91% 0.00 in 0 W/m2
03:36 31.6 °F 29.3 °F 29.72 in West 2.0 mph 3.0 mph 91% 0.00 in 0 W/m2
03:42 31.7 °F 29.4 °F 29.72 in West 2.0 mph 4.0 mph 91% 0.00 in 0 W/m2
03:48 31.7 °F 29.4 °F 29.72 in WNW 2.0 mph 4.0 mph 91% 0.00 in 0 W/m2
03:54 31.7 °F 29.4 °F 29.72 in WNW 2.0 mph 2.0 mph 91% 0.00 in 0 W/m2
04:00 31.8 °F 29.2 °F 29.72 in WNW 2.0 mph 3.0 mph 90% 0.00 in 0 W/m2
04:06 31.8 °F 28.9 °F 29.72 in WNW 2.0 mph 3.0 mph 89% 0.00 in 0 W/m2
04:12 31.9 °F 29.0 °F 29.72 in WNW 2.0 mph 3.0 mph 89% 0.00 in 0 W/m2
04:18 31.8 °F 28.7 °F 29.71 in WSW 2.0 mph 5.0 mph 88% 0.00 in 0 W/m2
04:24 31.9 °F 28.5 °F 29.72 in WSW 2.0 mph 2.0 mph 87% 0.00 in 0 W/m2
04:30 31.9 °F 28.2 °F 29.72 in WSW 2.0 mph 3.0 mph 86% 0.00 in 0 W/m2
04:36 31.9 °F 28.2 °F 29.72 in WSW 2.0 mph 5.0 mph 86% 0.00 in 0 W/m2
04:42 31.9 °F 27.9 °F 29.72 in West 2.0 mph 2.0 mph 85% 0.00 in 0 W/m2
04:48 31.8 °F 27.8 °F 29.72 in West 2.0 mph 6.0 mph 85% 0.00 in 0 W/m2
04:54 31.8 °F 27.8 °F 29.72 in West 2.0 mph 4.0 mph 85% 0.00 in 0 W/m2
05:00 31.8 °F 27.5 °F 29.72 in WNW 2.0 mph 2.0 mph 84% 0.00 in 0 W/m2
05:06 31.8 °F 27.5 °F 29.72 in WNW 2.0 mph 3.0 mph 84% 0.00 in 0 W/m2
05:12 31.8 °F 27.2 °F 29.73 in West 2.0 mph 3.0 mph 83% 0.00 in 0 W/m2
05:18 31.8 °F 26.9 °F 29.73 in West 2.0 mph 3.0 mph 82% 0.00 in 0 W/m2
05:24 31.8 °F 26.6 °F 29.73 in WNW 3.0 mph 4.0 mph 81% 0.00 in 0 W/m2
05:30 31.7 °F 26.2 °F 29.73 in NW 3.0 mph 4.0 mph 80% 0.00 in 0 W/m2
05:36 31.7 °F 26.2 °F 29.73 in WNW 3.0 mph 4.0 mph 80% 0.00 in 0 W/m2
05:42 31.7 °F 26.2 °F 29.73 in WNW 2.0 mph 3.0 mph 80% 0.00 in 0 W/m2
05:48 31.6 °F 25.8 °F 29.73 in West 2.0 mph 3.0 mph 79% 0.00 in 0 W/m2
05:54 31.6 °F 25.8 °F 29.73 in WNW 2.0 mph 5.0 mph 79% 0.00 in 0 W/m2
06:00 31.5 °F 25.7 °F 29.73 in WSW 2.0 mph 3.0 mph 79% 0.00 in 0 W/m2
06:06 31.4 °F 25.6 °F 29.73 in West 3.0 mph 4.0 mph 79% 0.00 in 0 W/m2
06:12 31.3 °F 25.5 °F 29.73 in West 2.0 mph 3.0 mph 79% 0.00 in 0 W/m2
06:18 31.3 °F 25.5 °F 29.74 in West 2.0 mph 3.0 mph 79% 0.00 in 0 W/m2
06:24 31.2 °F 25.4 °F 29.74 in WNW 3.0 mph 5.0 mph 79% 0.00 in 0 W/m2
06:30 31.1 °F 25.3 °F 29.74 in West 2.0 mph 4.0 mph 79% 0.00 in 0 W/m2
06:36 31.0 °F 25.2 °F 29.74 in WSW 3.0 mph 4.0 mph 79% 0.00 in 0 W/m2
06:42 30.9 °F 25.2 °F 29.74 in WSW 2.0 mph 4.0 mph 79% 0.00 in 0 W/m2
06:48 30.9 °F 25.5 °F 29.74 in WSW 3.0 mph 4.0 mph 80% 0.00 in 5 W/m2
06:54 30.8 °F 25.4 °F 29.74 in West 2.0 mph 3.0 mph 80% 0.00 in 9 W/m2
07:00 30.7 °F 25.3 °F 29.74 in WSW 2.0 mph 7.0 mph 80% 0.00 in 14 W/m2
07:06 30.6 °F 25.2 °F 29.73 in West 2.0 mph 7.0 mph 80% 0.00 in 18 W/m2
07:12 30.4 °F 25.0 °F 29.74 in WNW 2.0 mph 3.0 mph 80% 0.00 in 23 W/m2
07:18 30.2 °F 24.8 °F 29.74 in WSW 3.0 mph 4.0 mph 80% 0.00 in 26 W/m2
07:24 30.0 °F 24.6 °F 29.74 in West 3.0 mph 3.0 mph 80% 0.00 in 28 W/m2
07:30 29.9 °F 24.8 °F 29.74 in West 2.0 mph 2.0 mph 81% 0.00 in 28 W/m2
07:36 29.8 °F 25.0 °F 29.74 in West 2.0 mph 3.0 mph 82% 0.00 in 33 W/m2
07:42 29.6 °F 24.8 °F 29.74 in WNW 2.0 mph 2.0 mph 82% 0.00 in 40 W/m2
07:48 29.6 °F 25.1 °F 29.74 in WNW 2.0 mph 3.0 mph 83% 0.00 in 46 W/m2
07:54 29.6 °F 25.1 °F 29.74 in WNW 1.0 mph 2.0 mph 83% 0.00 in 53 W/m2
08:00 29.6 °F 25.1 °F 29.74 in WNW 1.0 mph 2.0 mph 83% 0.00 in 60 W/m2
08:06 29.6 °F 25.4 °F 29.74 in WNW 2.0 mph 3.0 mph 84% 0.00 in 72 W/m2
08:12 29.7 °F 25.5 °F 29.74 in WNW 1.0 mph 2.0 mph 84% 0.00 in 81 W/m2
08:18 29.8 °F 25.8 °F 29.74 in Calm   3.0 mph 85% 0.00 in 90 W/m2
08:24 29.6 °F 25.6 °F 29.74 in SW 1.0 mph 3.0 mph 85% 0.00 in 104 W/m2
08:30 29.7 °F 25.7 °F 29.73 in WNW 2.0 mph 2.0 mph 85% 0.00 in 107 W/m2
08:36 29.8 °F 25.8 °F 29.74 in WNW 1.0 mph 2.0 mph 85% 0.00 in 114 W/m2
08:42 30.0 °F 26.0 °F 29.74 in WNW 1.0 mph 1.0 mph 85% 0.00 in 107 W/m2
08:48 30.1 °F 26.1 °F 29.74 in WSW 1.0 mph 3.0 mph 85% 0.00 in 118 W/m2
08:54 30.2 °F 25.7 °F 29.74 in West 2.0 mph 4.0 mph 83% 0.00 in 134 W/m2
09:00 30.3 °F 25.2 °F 29.74 in NW 3.0 mph 3.0 mph 81% 0.00 in 127 W/m2
09:06 30.5 °F 24.8 °F 29.74 in WNW 3.0 mph 3.0 mph 79% 0.00 in 130 W/m2
09:12 30.7 °F 24.0 °F 29.74 in West 3.0 mph 6.0 mph 76% 0.00 in 139 W/m2
09:18 30.8 °F 23.2 °F 29.74 in WSW 3.0 mph 7.0 mph 73% 0.00 in 190 W/m2
09:24 30.9 °F 22.6 °F 29.74 in SW 4.0 mph 4.0 mph 71% 0.00 in 223 W/m2
09:30 31.0 °F 22.0 °F 29.73 in NW 4.0 mph 4.0 mph 69% 0.00 in 258 W/m2
09:36 31.2 °F 21.9 °F 29.73 in West 4.0 mph 4.0 mph 68% 0.00 in 269 W/m2
09:42 31.4 °F 22.1 °F 29.73 in West 4.0 mph 5.0 mph 68% 0.00 in 258 W/m2
09:48 31.4 °F 21.7 °F 29.73 in West 4.0 mph 5.0 mph 67% 0.00 in 237 W/m2
09:54 31.4 °F 21.7 °F 29.73 in West 4.0 mph 6.0 mph 67% 0.00 in 267 W/m2
10:00 31.6 °F 22.2 °F 29.73 in West 4.0 mph 7.0 mph 68% 0.00 in 281 W/m2
10:06 31.7 °F 22.3 °F 29.73 in West 4.0 mph 7.0 mph 68% 0.00 in 309 W/m2
10:12 31.7 °F 21.6 °F 29.73 in West 4.0 mph 8.0 mph 66% 0.00 in 390 W/m2
10:18 32.1 °F 21.3 °F 29.73 in West 4.0 mph 8.0 mph 64% 0.00 in 494 W/m2
10:24 31.9 °F 21.1 °F 29.73 in West 4.0 mph 8.0 mph 64% 0.00 in 403 W/m2
10:30 32.0 °F 20.8 °F 29.73 in West 5.0 mph 5.0 mph 63% 0.00 in 431 W/m2
10:36 32.0 °F 21.2 °F 29.73 in WNW 5.0 mph 7.0 mph 64% 0.00 in 380 W/m2
10:42 32.3 °F 21.5 °F 29.73 in NW 4.0 mph 4.0 mph 64% 0.00 in 399 W/m2
10:48 32.2 °F 20.6 °F 29.73 in WSW 4.0 mph 5.0 mph 62% 0.00 in 371 W/m2
10:54 32.4 °F 20.4 °F 29.73 in NW 4.0 mph 4.0 mph 61% 0.00 in 438 W/m2
11:00 33.0 °F 21.0 °F 29.73 in SW 3.0 mph 3.0 mph 61% 0.00 in 457 W/m2
11:06 32.9 °F 20.5 °F 29.73 in West 4.0 mph 5.0 mph 60% 0.00 in 462 W/m2
11:12 32.7 °F 20.3 °F 29.73 in West 5.0 mph 8.0 mph 60% 0.00 in 504 W/m2
11:18 33.1 °F 20.3 °F 29.73 in West 4.0 mph 8.0 mph 59% 0.00 in 529 W/m2
11:24 33.4 °F 20.6 °F 29.73 in West 4.0 mph 6.0 mph 59% 0.00 in 636 W/m2
11:30 33.5 °F 21.1 °F 29.73 in West 5.0 mph 10.0 mph 60% 0.00 in 517 W/m2
11:36 34.1 °F 21.7 °F 29.72 in West 4.0 mph 10.0 mph 60% 0.00 in 798 W/m2
11:42 34.5 °F 22.0 °F 29.72 in NW 4.0 mph 4.0 mph 60% 0.00 in 691 W/m2
11:48 34.7 °F 21.4 °F 29.72 in West 4.0 mph 7.0 mph 58% 0.00 in 443 W/m2
11:54 34.3 °F 20.6 °F 29.71 in West 4.0 mph 5.0 mph 57% 0.00 in 889 W/m2
12:00 34.3 °F 20.2 °F 29.71 in WSW 4.0 mph 4.0 mph 56% 0.00 in 350 W/m2
12:06 33.7 °F 19.2 °F 29.71 in WSW 4.0 mph 5.0 mph 55% 0.00 in 271 W/m2
12:12 34.9 °F 20.4 °F 29.71 in WNW 4.0 mph 6.0 mph 55% 0.00 in 1037 W/m2
12:18 35.0 °F 19.6 °F 29.71 in WNW 4.0 mph 7.0 mph 53% 0.00 in 1037 W/m2
12:24 34.9 °F 20.8 °F 29.71 in NNW 4.0 mph 6.0 mph 56% 0.00 in 1037 W/m2
12:30 34.7 °F 19.7 °F 29.71 in WNW 4.0 mph 5.0 mph 54% 0.00 in 410 W/m2
12:36 34.0 °F 19.5 °F 29.70 in West 4.0 mph 5.0 mph 55% 0.00 in 229 W/m2
12:42 34.1 °F 19.2 °F 29.70 in West 4.0 mph 4.0 mph 54% 0.00 in 290 W/m2
12:48 33.5 °F 18.2 °F 29.70 in NW 4.0 mph 6.0 mph 53% 0.00 in 199 W/m2
12:54 33.1 °F 18.2 °F 29.70 in WNW 4.0 mph 5.0 mph 54% 0.00 in 264 W/m2
13:00 33.5 °F 19.0 °F 29.70 in WNW 3.0 mph 3.0 mph 55% 0.00 in 257 W/m2
13:06 33.3 °F 17.5 °F 29.70 in WNW 4.0 mph 5.0 mph 52% 0.00 in 246 W/m2
13:12 33.4 °F 17.6 °F 29.70 in WNW 4.0 mph 4.0 mph 52% 0.00 in 255 W/m2
13:18 33.4 °F 18.5 °F 29.70 in WNW 3.0 mph 6.0 mph 54% 0.00 in 257 W/m2
13:24 33.4 °F 18.1 °F 29.70 in WNW 3.0 mph 5.0 mph 53% 0.00 in 209 W/m2
13:30 33.3 °F 18.9 °F 29.70 in WNW 4.0 mph 4.0 mph 55% 0.00 in 174 W/m2
13:36 33.2 °F 18.8 °F 29.70 in West 4.0 mph 4.0 mph 55% 0.00 in 151 W/m2
13:42 32.8 °F 17.5 °F 29.69 in WNW 4.0 mph 4.0 mph 53% 0.00 in 167 W/m2
13:48 32.9 °F 17.6 °F 29.69 in West 4.0 mph 10.0 mph 53% 0.00 in 190 W/m2
13:54 33.0 °F 18.1 °F 29.69 in WNW 4.0 mph 5.0 mph 54% 0.00 in 246 W/m2
14:00 33.3 °F 20.1 °F 29.69 in NNW 4.0 mph 4.0 mph 58% 0.00 in 499 W/m2
14:06 33.3 °F 20.5 °F 29.69 in NW 3.0 mph 6.0 mph 59% 0.00 in 209 W/m2
14:12 33.0 °F 21.0 °F 29.69 in NNW 3.0 mph 3.0 mph 61% 0.00 in 214 W/m2
14:18 32.8 °F 20.8 °F 29.68 in NNW 3.0 mph 4.0 mph 61% 0.00 in 169 W/m2
14:24 32.6 °F 20.6 °F 29.68 in WNW 4.0 mph 7.0 mph 61% 0.00 in 116 W/m2
14:30 32.2 °F 20.2 °F 29.68 in NW 5.0 mph 6.0 mph 61% 0.00 in 128 W/m2
14:36 32.1 °F 20.2 °F 29.68 in WNW 4.0 mph 6.0 mph 61% 0.00 in 125 W/m2
14:42 31.9 °F 20.3 °F 29.68 in NNW 4.0 mph 7.0 mph 62% 0.00 in 100 W/m2
14:48 31.7 °F 20.2 °F 29.68 in NNW 5.0 mph 8.0 mph 62% 0.00 in 104 W/m2
14:54 31.5 °F 20.0 °F 29.69 in NW 4.0 mph 8.0 mph 62% 0.00 in 113 W/m2
15:00 31.5 °F 20.3 °F 29.68 in NNW 4.0 mph 5.0 mph 63% 0.00 in 127 W/m2
15:06 31.5 °F 20.0 °F 29.68 in NW 4.0 mph 7.0 mph 62% 0.00 in 113 W/m2
15:12 31.6 °F 20.4 °F 29.68 in NNW 3.0 mph 4.0 mph 63% 0.00 in 102 W/m2
15:18 31.7 °F 20.5 °F 29.68 in NW 2.0 mph 5.0 mph 63% 0.00 in 102 W/m2
15:24 31.5 °F 20.3 °F 29.69 in NNW 4.0 mph 6.0 mph 63% 0.00 in 83 W/m2
15:30 31.4 °F 20.2 °F 29.69 in NW 3.0 mph 3.0 mph 63% 0.00 in 88 W/m2
15:36 31.6 °F 20.4 °F 29.69 in WNW 3.0 mph 5.0 mph 63% 0.00 in 105 W/m2
15:42 31.8 °F 20.6 °F 29.69 in WNW 3.0 mph 3.0 mph 63% 0.00 in 123 W/m2
15:48 31.9 °F 20.3 °F 29.69 in NW 3.0 mph 4.0 mph 62% 0.00 in 137 W/m2
15:54 31.9 °F 20.0 °F 29.69 in NW 3.0 mph 5.0 mph 61% 0.00 in 127 W/m2
16:00 31.8 °F 19.1 °F 29.69 in WNW 4.0 mph 7.0 mph 59% 0.00 in 107 W/m2
16:06 31.8 °F 19.5 °F 29.70 in WNW 4.0 mph 7.0 mph 60% 0.00 in 93 W/m2
16:12 31.6 °F 19.7 °F 29.70 in WNW 4.0 mph 4.0 mph 61% 0.00 in 105 W/m2
16:18 31.4 °F 19.5 °F 29.69 in WNW 4.0 mph 6.0 mph 61% 0.00 in 114 W/m2
16:24 31.4 °F 19.5 °F 29.70 in NW 4.0 mph 4.0 mph 61% 0.00 in 98 W/m2
16:30 31.5 °F 20.3 °F 29.70 in NW 3.0 mph 4.0 mph 63% 0.00 in 100 W/m2
16:36 31.4 °F 19.9 °F 29.70 in NW 3.0 mph 4.0 mph 62% 0.00 in 105 W/m2
16:42 31.3 °F 20.2 °F 29.70 in WNW 4.0 mph 5.0 mph 63% 0.00 in 91 W/m2
16:48 31.1 °F 20.3 °F 29.70 in NW 4.0 mph 5.0 mph 64% 0.00 in 79 W/m2
16:54 31.0 °F 20.2 °F 29.70 in NW 3.0 mph 4.0 mph 64% 0.00 in 63 W/m2
17:00 30.9 °F 20.1 °F 29.70 in NW 4.0 mph 4.0 mph 64% 0.00 in 40 W/m2
17:06 30.8 °F 20.0 °F 29.71 in WNW 3.0 mph 5.0 mph 64% 0.00 in 42 W/m2
17:12 30.7 °F 20.3 °F 29.71 in NW 3.0 mph 4.0 mph 65% 0.00 in 40 W/m2
17:20 30.8 °F 20.4 °F 29.71 in WNW 3.0 mph 4.0 mph 65% 0.00 in 40 W/m2
17:26 30.7 °F 20.3 °F 29.70 in WNW 3.0 mph 5.0 mph 65% 0.00 in 44 W/m2
17:32 30.6 °F 20.2 °F 29.71 in WNW 2.0 mph 4.0 mph 65% 0.00 in 23 W/m2
17:38 30.4 °F 19.7 °F 29.71 in WNW 3.0 mph 4.0 mph 64% 0.00 in 19 W/m2
17:44 30.2 °F 19.8 °F 29.71 in WNW 3.0 mph 6.0 mph 65% 0.00 in 12 W/m2
17:50 30.1 °F 19.7 °F 29.71 in WNW 3.0 mph 3.0 mph 65% 0.00 in 11 W/m2
17:56 30.0 °F 20.0 °F 29.71 in WNW 3.0 mph 4.0 mph 66% 0.00 in 9 W/m2
18:02 29.8 °F 20.2 °F 29.71 in WNW 2.0 mph 5.0 mph 67% 0.00 in 5 W/m2
18:08 29.5 °F 19.9 °F 29.71 in WNW 3.0 mph 5.0 mph 67% 0.00 in 0 W/m2
18:14 29.4 °F 20.1 °F 29.71 in West 2.0 mph 3.0 mph 68% 0.00 in 0 W/m2
18:20 29.2 °F 19.9 °F 29.71 in NW 1.0 mph 1.0 mph 68% 0.00 in 0 W/m2
18:26 29.1 °F 19.8 °F 29.71 in West 1.0 mph 1.0 mph 68% 0.00 in 0 W/m2
18:32 29.0 °F 19.8 °F 29.71 in Calm     68% 0.00 in 0 W/m2
18:38 28.9 °F 19.7 °F 29.71 in Calm   1.0 mph 68% 0.00 in 0 W/m2
18:44 28.7 °F 19.8 °F 29.71 in Calm   1.0 mph 69% 0.00 in 0 W/m2
18:50 28.6 °F 19.7 °F 29.71 in Calm     69% 0.00 in 0 W/m2
18:56 28.3 °F 19.4 °F 29.71 in Calm     69% 0.00 in 0 W/m2
19:04 28.0 °F 19.1 °F 29.71 in Calm     69% 0.00 in 0 W/m2
19:10 27.8 °F 18.9 °F 29.71 in Calm     69% 0.00 in 0 W/m2
19:16 27.5 °F 19.0 °F 29.71 in Calm     70% 0.00 in 0 W/m2
19:22 27.3 °F 18.8 °F 29.71 in Calm     70% 0.00 in 0 W/m2
19:28 27.2 °F 19.0 °F 29.71 in Calm     71% 0.00 in 0 W/m2
19:34 27.2 °F 19.0 °F 29.71 in Calm     71% 0.00 in 0 W/m2
19:40 27.4 °F 19.6 °F 29.71 in Calm     72% 0.00 in 0 W/m2
19:46 27.6 °F 19.8 °F 29.71 in Calm   1.0 mph 72% 0.00 in 0 W/m2
19:52 28.3 °F 19.8 °F 29.71 in NW 1.0 mph 3.0 mph 70% 0.00 in 0 W/m2
19:58 28.9 °F 19.3 °F 29.71 in NW 2.0 mph 3.0 mph 67% 0.00 in 0 W/m2
20:04 29.1 °F 18.8 °F 29.70 in NW 2.0 mph 4.0 mph 65% 0.00 in 0 W/m2
20:10 29.2 °F 18.5 °F 29.70 in WSW 2.0 mph 2.0 mph 64% 0.00 in 0 W/m2
20:16 29.2 °F 18.5 °F 29.70 in West 2.0 mph 3.0 mph 64% 0.00 in 0 W/m2
20:22 29.1 °F 18.4 °F 29.70 in West 2.0 mph 2.0 mph 64% 0.00 in 0 W/m2
20:28 28.9 °F 18.6 °F 29.70 in West 1.0 mph 2.0 mph 65% 0.00 in 0 W/m2
20:34 28.7 °F 18.8 °F 29.70 in West 1.0 mph 3.0 mph 66% 0.00 in 0 W/m2
20:40 28.6 °F 18.7 °F 29.70 in West 1.0 mph 1.0 mph 66% 0.00 in 0 W/m2
20:46 28.5 °F 18.9 °F 29.69 in Calm   2.0 mph 67% 0.00 in 0 W/m2
20:52 28.3 °F 19.1 °F 29.69 in Calm   1.0 mph 68% 0.00 in 0 W/m2
20:58 28.1 °F 18.9 °F 29.69 in Calm   1.0 mph 68% 0.00 in 0 W/m2
21:04 28.1 °F 19.2 °F 29.69 in WSW 1.0 mph 3.0 mph 69% 0.00 in 0 W/m2
21:10 28.0 °F 19.5 °F 29.68 in West 2.0 mph 4.0 mph 70% 0.00 in 0 W/m2
21:16 28.0 °F 19.8 °F 29.68 in West 2.0 mph 4.0 mph 71% 0.00 in 0 W/m2
21:22 28.0 °F 20.1 °F 29.68 in West 1.0 mph 1.0 mph 72% 0.00 in 0 W/m2
21:28 27.8 °F 19.9 °F 29.68 in Calm   2.0 mph 72% 0.00 in 0 W/m2
21:34 27.8 °F 20.3 °F 29.68 in West 1.0 mph 2.0 mph 73% 0.00 in 0 W/m2
21:40 27.8 °F 20.3 °F 29.68 in West 1.0 mph 2.0 mph 73% 0.00 in 0 W/m2
21:46 27.8 °F 20.3 °F 29.67 in WSW 2.0 mph 2.0 mph 73% 0.00 in 0 W/m2
21:52 27.8 °F 20.6 °F 29.67 in WSW 2.0 mph 3.0 mph 74% 0.00 in 0 W/m2
21:58 27.7 °F 20.5 °F 29.67 in WSW 1.0 mph 4.0 mph 74% 0.00 in 0 W/m2
22:04 27.7 °F 20.5 °F 29.67 in WSW 1.0 mph 3.0 mph 74% 0.00 in 0 W/m2
22:10 27.6 °F 20.7 °F 29.67 in WSW 2.0 mph 2.0 mph 75% 0.00 in 0 W/m2
22:16 27.6 °F 20.7 °F 29.67 in WSW 2.0 mph 2.0 mph 75% 0.00 in 0 W/m2
22:22 27.5 °F 20.9 °F 29.67 in WSW 2.0 mph 3.0 mph 76% 0.00 in 0 W/m2
22:28 27.4 °F 20.8 °F 29.67 in SW 1.0 mph 3.0 mph 76% 0.00 in 0 W/m2
22:34 27.4 °F 21.1 °F 29.67 in WSW 2.0 mph 2.0 mph 77% 0.00 in 0 W/m2
22:40 27.5 °F 21.2 °F 29.66 in SW 2.0 mph 3.0 mph 77% 0.00 in 0 W/m2
22:46 27.5 °F 21.5 °F 29.66 in SW 1.0 mph 3.0 mph 78% 0.00 in 0 W/m2
22:52 27.4 °F 21.4 °F 29.65 in SW 1.0 mph 2.0 mph 78% 0.00 in 0 W/m2
22:58 27.4 °F 21.4 °F 29.65 in WSW 1.0 mph 2.0 mph 78% 0.00 in 0 W/m2
23:04 27.3 °F 21.6 °F 29.65 in WNW 1.0 mph 3.0 mph 79% 0.00 in 0 W/m2
23:10 27.2 °F 21.5 °F 29.65 in WSW 2.0 mph 2.0 mph 79% 0.00 in 0 W/m2
23:16 27.1 °F 21.5 °F 29.64 in SW 2.0 mph 2.0 mph 79% 0.00 in 0 W/m2
23:22 27.0 °F 21.4 °F 29.64 in SW 2.0 mph 2.0 mph 79% 0.00 in 0 W/m2
23:28 26.9 °F 21.3 °F 29.64 in West 2.0 mph 2.0 mph 79% 0.00 in 0 W/m2
23:34 26.9 °F 21.6 °F 29.64 in West 1.0 mph 1.0 mph 80% 0.00 in 0 W/m2
23:40 26.7 °F 21.4 °F 29.63 in SW 1.0 mph 1.0 mph 80% 0.00 in 0 W/m2
23:46 26.7 °F 21.4 °F 29.63 in West 1.0 mph 3.0 mph 80% 0.00 in 0 W/m2
23:52 26.7 °F 21.4 °F 29.63 in West 1.0 mph 3.0 mph 80% 0.00 in 0 W/m2
23:58 26.7 °F 21.4 °F 29.63 in West 1.0 mph 4.0 mph 80% 0.00 in 0 W/m2
Country Meadow, Clay, NY, USA
Compliments of Weather Underground - 2 mb